Regional Weather Roundup
Issued by NWS

Home | Current Version | Previous Version | Graphics & Text | Print | Product List | Glossary On
Versions: 1 2 3 4 5 6 7 8 9 10 11 12 13 14 15 16 17 18 19 20 21 22 23 24 25 26 27 28 29 30 31 32 33 34 35 36 37 38 39 40 41 42 43 44 45 46 47 48 49 50
000
ASUS43 KDTX 061310
RWRMI
MICHIGAN HOURLY REGIONAL WEATHER ROUNDUP
NATIONAL WEATHER SERVICE DETROIT/PONTIAC MI
ISSUED BY NATIONAL WEATHER SERVICE GRAND RAPIDS MI
800 AM EST TUE DEC 06 2016

NOTE: "FAIR" INDICATES FEW OR NO CLOUDS BELOW 12,000 FEET WITH NO
SIGNIFICANT WEATHER AND/OR OBSTRUCTION TO VISIBILITY.

MIZ047>049-052>055-059>063-066>070-074>076-081>083-061400-
SOUTHEAST LOWER MICHIGAN

CITY           SKY/WX    TMP DP  RH WIND       PRES   REMARKS
ADRIAN         PTCLDY    34  32  92 E9        29.84F WCI  27
ALMA           CLEAR     29  28  96 NE8       29.88F FOG     WCI  21
ANN ARBOR      PTCLDY    35  32  88 NE7       29.84F WCI  29
BAD AXE        CLEAR     31  30  96 SE3       29.94F
DETROIT CITY   MOCLDY    38  35  89 E14       29.87F WCI  30
DETROIT        CLOUDY    38  33  82 E9        29.86F WCI  31
FLINT          PTCLDY    28  26  92 E8        29.88F WCI  20
GROSSE ILE     CLOUDY    36  32  85 NE7       29.84F WCI  31
HILLSDALE      CLOUDY    32  32 100 E16G25    29.78F WCI  21
HOWELL         CLOUDY    34  32  91 E9G16     29.84F WCI  27

CITY           SKY/WX    TMP DP  RH WIND       PRES   REMARKS
JACKSON        CLOUDY    34  30  85 E13       29.83F WCI  25
LANSING        PTCLDY    30  27  88 NE5       29.86F FOG     WCI  25
MASON          CLOUDY    34  32  93 E9        29.83F WCI  26
MONROE         MOCLDY    40  35  79 E14G20    29.84S WCI  33
MT. CLEMENS    CLOUDY    36  33  90 NE7       29.88F WCI  30
PONTIAC        CLOUDY    34  30  85 E12       29.85F WCI  25
PORT HOPE        N/A     39  33  79 SE15      29.93F WCI  31
PORT HURON     CLOUDY    32  30  93 NE6       29.92F WCI  26
TRI CITIES     CLEAR     29  28  96 E7        29.90F FOG     WCI  22
YPSILANTI      MOCLDY    38  33  82 E14       29.84F WCI  30
$$
MIZ043>046-050>051-056>058-064>065-071>073-077>080-061400-
SOUTHWEST LOWER MICHIGAN

CITY           SKY/WX    TMP DP  RH WIND       PRES   REMARKS
BATTLE CREEK   MOCLDY    33  31  92 E7        29.81F WCI  27
BENTON HARBOR  MOCLDY    30  26  85 E6        29.80F FOG     WCI  24
BIG RAPIDS     CLOUDY    32  29  88 E7        29.86F WCI  26
COLDWATER      CLOUDY    35  31  86 E12G18    29.79F WCI  27
HOLLAND        PTCLDY    29  27  92 E6        29.82F WCI  23
GRAND RAPIDS   PTCLDY    29  26  89 NE6       29.84F FOG     WCI  23
KALAMAZOO      CLOUDY    32  28  85 NE3       29.82F FOG
MARSHALL       CLOUDY    34  32  94 E7        29.81F WCI  27
MOUNT PLEASANT CLOUDY    29  28  96 NE5       29.89F FOG     WCI  24
MUSKEGON       CLOUDY    32  29  88 E13       29.85F WCI  22
STURGIS        CLOUDY    34  29  83 E8        29.78F WCI  27
$$
MIZ016>042-061400-
NORTHERN LOWER MICHIGAN

CITY           SKY/WX    TMP DP  RH WIND       PRES   REMARKS
ALPENA         CLOUDY    34  32  92 S3        29.96F
BEAVER ISLAND  MOCLDY    37  33  82 SE12      29.87F WCI  30
BELLAIRE       CLOUDY    35  31  87 SE6       29.90S WCI  29
CADILLAC       MOCLDY    30  28  90 SE8       29.86F WCI  23
CHARLEVOIX     PTCLDY    34  32  90 SE10      29.92S WCI  26
GAYLORD        MOCLDY    30  27  88 SE9       29.89F FOG     WCI  22
HOUGHTON LAKE  CLOUDY    30  27  88 SE7       29.90F FOG     WCI  23
MANISTEE       CLOUDY    32  29  88 SE7G17    29.84F WCI  26
OSCODA         PTCLDY    32  30  94 MISG      29.93F
PELLSTON       CLOUDY    34  29  82 SE8       29.93S WCI  27
TRAVERSE CITY  CLOUDY    35  28  75 VRB6      29.87F WCI  30
LUDINGTON      CLOUDY    31  29  94 E6        29.84F WCI  25
$$
MIZ007>008-015-061400-
EASTERN UPPER MICHIGAN

CITY           SKY/WX    TMP DP  RH WIND       PRES   REMARKS
KINROSS        LGT RAIN  35  33  92 SE12      29.93S WCI  27
MACKINAC ISLAN CLOUDY    35  31  85 SE9       29.93S WCI  28
NEWBERRY       CLOUDY    34  33  96 SE13G21   29.86F WCI  25
S. S. MARIE    LGT RAIN  35  33  92 E7        29.94S WCI  29
$$
MIZ004>006-011>014-085-061400-
CENTRAL UPPER MICHIGAN

CITY           SKY/WX    TMP DP  RH WIND       PRES   REMARKS
MANISTIQUE     MOCLDY    40  37  89 SE13G22   29.84S WCI  32
ESCANABA       CLOUDY    40  34  79 S12G21    29.82S WCI  33
MENOMINEE      CLOUDY    39  35  86 S10G18    29.80F WCI  32
SAWYER-GWINN   CLOUDY    36  34  93 S13       29.77F FOG     WCI  27
$$
MIZ001>003-009>011-084-061400-
WESTERN UPPER MICHIGAN

CITY           SKY/WX    TMP DP  RH WIND       PRES   REMARKS
IRON MOUNTAIN  CLOUDY    36  32  85 SE9G20    29.74F WCI  29
HOUGHTON       CLOUDY    37  30  75 S9        29.69S WCI  30
COPPER HARBOR    N/A     41  36  82 S9G23     29.71F
IRONWOOD       LGT SNOW  34  30  86 S14G20    29.61F FOG     WCI  24
$$

ABBREVIATIONS USED IN REMARKS
   TC - TEMPERATURE IN CELSIUS
  WCI - WIND CHILL INDEX
   HX - HEAT INDEX
  VSB - VISIBILITY





USA.gov is the U.S. government's official web portal to all federal, state and local government web resources and services.